Zurück zum Katalog

STARLINK-34655

AktivKommunikationVLEO
NORAD 65027·PAYLOAD·🇺🇸 United States

Gestartet Jul 30, 2025 von Cape Canaveral Space Force Station

Loading…

Nächste Überflüge (nächste 24 Stunden)

TLE

AktuellSource: CelesTrak SupGP

Epoche: Sep 14, 2026, 21:07 UTC

1 65027C 25161N   26257.88034722 -.00069626  00000+0 -20571-2 0  2575
2 65027  53.1575 133.7934 0001313  98.3304  89.4595 15.34425483    13

Verfolge STARLINK-34655 in Echtzeit mit AllMySat

Download on the App Store